• In Deutschland
  • Länderverzeichnis
  • Für 7 Tage
  • Wassertemperatur
  • Satellitenkarten
  • Wetterkarte
  • Widgets
  • user-avatar
    Anmelden

    Stündliche Wetter Changchun

    Heute, 20 Januar, Samstag

    Zeit Temperatur Niederschläge Wind Luftdruck Luftfeuchtigkeit
    00:00 -16°C° 0 mm 3 m/S 745 mmHg 82%
    01:00 -17°C° 0 mm 3 m/S 746 mmHg 80%
    02:00 -18°C° 0 mm 3 m/S 746 mmHg 77%
    03:00 -19°C° 0 mm 3 m/S 747 mmHg 77%
    04:00 -19°C° 0 mm 3 m/S 747 mmHg 77%
    05:00 -19°C° 0 mm 2 m/S 748 mmHg 77%
    06:00 -19°C° 0 mm 2 m/S 748 mmHg 76%
    07:00 -19°C° 0 mm 2 m/S 748 mmHg 74%
    08:00 -19°C° 0 mm 2 m/S 748 mmHg 70%
    09:00 -18°C° 0 mm 3 m/S 748 mmHg 65%
    10:00 -18°C° 0 mm 5 m/S 748 mmHg 61%
    11:00 -17°C° 0 mm 6 m/S 748 mmHg 56%
    12:00 -17°C° 0 mm 6 m/S 748 mmHg 54%
    13:00 -17°C° 0 mm 6 m/S 748 mmHg 51%
    14:00 -17°C° 0 mm 6 m/S 747 mmHg 49%
    15:00 -18°C° 0 mm 5 m/S 748 mmHg 54%
    16:00 -18°C° 0 mm 4 m/S 748 mmHg 59%
    17:00 -19°C° 0 mm 3 m/S 749 mmHg 64%
    18:00 -21°C° 0 mm 3 m/S 749 mmHg 67%
    19:00 -19°C° 0 mm 2 m/S 750 mmHg 69%
    20:00 -20°C° 0 mm 2 m/S 750 mmHg 71%
    21:00 -20°C° 0 mm 2 m/S 750 mmHg 72%
    22:00 -21°C° 0 mm 2 m/S 751 mmHg 73%
    23:00 -21°C° 0 mm 2 m/S 751 mmHg 74%

    Morgen, 21 Januar, Sonntag

    Zeit Temperatur Niederschläge Wind Luftdruck Luftfeuchtigkeit
    00:00 -23°C° 0 mm 2 m/S 751 mmHg 76%
    01:00 -23°C° 0 mm 2 m/S 751 mmHg 77%
    02:00 -23°C° 0 mm 2 m/S 751 mmHg 78%
    03:00 -24°C° 0 mm 2 m/S 751 mmHg 79%
    04:00 -21°C° 0 mm 1 m/S 751 mmHg 80%
    05:00 -21°C° 0 mm 1 m/S 751 mmHg 81%
    06:00 -21°C° 0 mm 1 m/S 751 mmHg 80%
    07:00 -21°C° 0 mm 1 m/S 751 mmHg 78%
    08:00 -21°C° 0 mm 1 m/S 752 mmHg 77%
    09:00 -20°C° 0 mm 1 m/S 752 mmHg 69%
    10:00 -19°C° 0 mm 1 m/S 752 mmHg 61%
    11:00 -17°C° 0 mm 1 m/S 752 mmHg 53%
    12:00 -17°C° 0 mm 1 m/S 751 mmHg 51%
    13:00 -16°C° 0 mm 1 m/S 751 mmHg 49%
    14:00 -16°C° 0 mm 1 m/S 750 mmHg 47%
    15:00 -17°C° 0 mm 1 m/S 750 mmHg 53%
    16:00 -17°C° 0 mm 1 m/S 750 mmHg 58%
    17:00 -18°C° 0 mm 1 m/S 750 mmHg 64%
    18:00 -19°C° 0 mm 1 m/S 750 mmHg 66%
    19:00 -19°C° 0 mm 1 m/S 750 mmHg 68%
    20:00 -20°C° 0 mm 1 m/S 750 mmHg 70%
    21:00 -20°C° 0 mm 1 m/S 750 mmHg 71%
    22:00 -20°C° 0 mm 1 m/S 749 mmHg 72%
    23:00 -20°C° 0 mm 0 m/S 749 mmHg 73%

    übermorgen, 22 Januar, Montag

    Zeit Temperatur Niederschläge Wind Luftdruck Luftfeuchtigkeit
    00:00 -21°C° 0 mm 1 m/S 749 mmHg 74%
    01:00 -21°C° 0 mm 1 m/S 749 mmHg 75%
    02:00 -21°C° 0 mm 1 m/S 749 mmHg 75%
    03:00 -21°C° 0 mm 1 m/S 749 mmHg 77%
    04:00 -22°C° 0 mm 1 m/S 749 mmHg 79%
    05:00 -25°C° 0 mm 2 m/S 749 mmHg 81%
    06:00 -25°C° 0 mm 2 m/S 749 mmHg 81%
    07:00 -26°C° 0 mm 2 m/S 749 mmHg 81%
    08:00 -26°C° 0 mm 2 m/S 749 mmHg 81%
    09:00 -25°C° 0 mm 2 m/S 749 mmHg 73%
    10:00 -24°C° 0 mm 2 m/S 749 mmHg 66%
    11:00 -21°C° 0 mm 2 m/S 749 mmHg 58%
    12:00 -23°C° 0 mm 3 m/S 748 mmHg 57%
    13:00 -23°C° 0 mm 3 m/S 748 mmHg 55%
    14:00 -22°C° 0 mm 3 m/S 747 mmHg 54%
    15:00 -23°C° 0 mm 3 m/S 747 mmHg 59%
    16:00 -23°C° 0 mm 2 m/S 747 mmHg 64%
    17:00 -24°C° 0 mm 2 m/S 747 mmHg 69%
    18:00 -25°C° 0 mm 2 m/S 747 mmHg 71%
    19:00 -25°C° 0 mm 2 m/S 747 mmHg 72%
    20:00 -26°C° 0 mm 2 m/S 747 mmHg 74%
    21:00 -26°C° 0 mm 2 m/S 747 mmHg 75%
    22:00 -26°C° 0 mm 2 m/S 747 mmHg 75%
    23:00 -26°C° 0 mm 2 m/S 747 mmHg 76%

    23 Januar, Dienstag

    Zeit Temperatur Niederschläge Wind Luftdruck Luftfeuchtigkeit
    00:00 -27°C° 0 mm 2 m/S 746 mmHg 77%
    01:00 -27°C° 0 mm 2 m/S 746 mmHg 78%
    02:00 -29°C° 0 mm 3 m/S 746 mmHg 79%
    03:00 -29°C° 0 mm 3 m/S 746 mmHg 79%
    04:00 -30°C° 0 mm 3 m/S 746 mmHg 79%
    05:00 -30°C° 0 mm 3 m/S 745 mmHg 79%
    06:00 -30°C° 0 mm 3 m/S 746 mmHg 78%
    07:00 -30°C° 0 mm 3 m/S 746 mmHg 77%
    08:00 -30°C° 0 mm 3 m/S 746 mmHg 75%
    09:00 -29°C° 0 mm 4 m/S 746 mmHg 69%
    10:00 -27°C° 0 mm 4 m/S 746 mmHg 63%
    11:00 -27°C° 0 mm 5 m/S 746 mmHg 56%
    12:00 -27°C° 0 mm 5 m/S 746 mmHg 55%
    13:00 -26°C° 0 mm 5 m/S 746 mmHg 55%
    14:00 -26°C° 0 mm 5 m/S 745 mmHg 54%
    15:00 -25°C° 0 mm 4 m/S 746 mmHg 58%
    16:00 -25°C° 0 mm 3 m/S 746 mmHg 63%
    17:00 -26°C° 0 mm 3 m/S 746 mmHg 67%
    18:00 -25°C° 0 mm 2 m/S 746 mmHg 69%
    19:00 -26°C° 0 mm 2 m/S 746 mmHg 70%
    20:00 -26°C° 0 mm 2 m/S 746 mmHg 72%
    21:00 -26°C° 0 mm 2 m/S 746 mmHg 73%
    22:00 -26°C° 0 mm 2 m/S 746 mmHg 74%
    23:00 -27°C° 0 mm 2 m/S 747 mmHg 75%

    24 Januar, Mittwoch

    Zeit Temperatur Niederschläge Wind Luftdruck Luftfeuchtigkeit
    00:00 -27°C° 0 mm 2 m/S 747 mmHg 76%
    01:00 -27°C° 0 mm 2 m/S 747 mmHg 77%
    02:00 -27°C° 0 mm 2 m/S 748 mmHg 78%
    03:00 -28°C° 0 mm 2 m/S 748 mmHg 79%
    04:00 -28°C° 0 mm 2 m/S 748 mmHg 80%
    05:00 -25°C° 0 mm 1 m/S 748 mmHg 81%
    06:00 -25°C° 0 mm 1 m/S 749 mmHg 81%
    07:00 -25°C° 0 mm 1 m/S 749 mmHg 80%
    08:00 -25°C° 0 mm 1 m/S 750 mmHg 80%
    09:00 -26°C° 0 mm 2 m/S 750 mmHg 73%
    10:00 -25°C° 0 mm 2 m/S 750 mmHg 66%
    11:00 -23°C° 0 mm 2 m/S 751 mmHg 58%
    12:00 -24°C° 0 mm 3 m/S 751 mmHg 55%
    13:00 -23°C° 0 mm 3 m/S 751 mmHg 53%
    14:00 -23°C° 0 mm 3 m/S 751 mmHg 50%
    15:00 -23°C° 0 mm 2 m/S 751 mmHg 55%
    16:00 -24°C° 0 mm 2 m/S 751 mmHg 60%
    17:00 -25°C° 0 mm 2 m/S 751 mmHg 65%
    18:00 -25°C° 0 mm 2 m/S 751 mmHg 68%
    19:00 -26°C° 0 mm 2 m/S 752 mmHg 71%
    20:00 -26°C° 0 mm 2 m/S 752 mmHg 74%
    21:00 -27°C° 0 mm 2 m/S 752 mmHg 77%
    22:00 -27°C° 0 mm 2 m/S 752 mmHg 80%
    23:00 -28°C° 0 mm 2 m/S 753 mmHg 83%

    25 Januar, Donnerstag

    Zeit Temperatur Niederschläge Wind Luftdruck Luftfeuchtigkeit
    00:00 -28°C° 0 mm 2 m/S 753 mmHg 85%
    01:00 -29°C° 0 mm 2 m/S 753 mmHg 87%
    02:00 -29°C° 0 mm 2 m/S 753 mmHg 89%
    03:00 -29°C° 0 mm 2 m/S 754 mmHg 89%
    04:00 -30°C° 0 mm 2 m/S 754 mmHg 90%
    05:00 -30°C° 0 mm 2 m/S 754 mmHg 91%
    06:00 -30°C° 0 mm 2 m/S 755 mmHg 90%
    07:00 -30°C° 0 mm 2 m/S 755 mmHg 89%
    08:00 -30°C° 0 mm 2 m/S 756 mmHg 88%
    09:00 -31°C° 0 mm 3 m/S 756 mmHg 81%
    10:00 -30°C° 0 mm 3 m/S 756 mmHg 74%
    11:00 -30°C° 0 mm 4 m/S 756 mmHg 67%
    12:00 -29°C° 0 mm 4 m/S 756 mmHg 63%
    13:00 -29°C° 0 mm 5 m/S 756 mmHg 58%
    14:00 -28°C° 0 mm 5 m/S 756 mmHg 54%
    15:00 -29°C° 0 mm 4 m/S 756 mmHg 59%
    16:00 -29°C° 0 mm 3 m/S 756 mmHg 63%
    17:00 -27°C° 0 mm 2 m/S 756 mmHg 68%
    18:00 -28°C° 0 mm 2 m/S 756 mmHg 70%
    19:00 -28°C° 0 mm 2 m/S 756 mmHg 72%
    20:00 -25°C° 0 mm 1 m/S 756 mmHg 74%
    21:00 -25°C° 0 mm 1 m/S 756 mmHg 74%
    22:00 -28°C° 0 mm 2 m/S 756 mmHg 75%
    23:00 -29°C° 0 mm 2 m/S 756 mmHg 75%
    Mehr zeigen